Powrót do katalogu

CZ-4 DEB

AktywnySSO
NORAD 37616·DEBRIS·🇨🇳 China

Wystrzelony Sep 3, 1990 z Taiyuan Satellite Launch Center

Loading…

Następne Przeloty (najbliższe 24 godziny)

TLE

Starzejące sięSource: Space-Track

Epoka: Sep 7, 2026, 17:58 UTC

1 37616U 90081DC  26250.74923521  .00000073  00000-0  85937-4 0  9995
2 37616  98.9217 222.9989 0101276  38.7423 322.0944 13.92240167728147

Śledź CZ-4 DEB w czasie rzeczywistym z AllMySat

Download on the App Store